{"data":{"norad_id":57236,"intl_designator":"2023-094U","name":"STARLINK-6315","alt_names":[],"object_type":"PAYLOAD","status":"ACTIVE","operator":null,"country":"US","launch_date":"2023-07-07","launch_site_code":"AFWTR","launch_vehicle":null,"mission":null,"orbit_class":"UNKNOWN","rcs_meters":null,"size_class":null,"mass_kg":null,"dimensions":null,"purposes":["comms"],"wikipedia_slug":null,"has_3d_model":false,"image_url":null,"decayed_at":null,"tle_current":{"epoch":"2026-05-25T03:43:50.504160Z","epoch_age_seconds":65142,"freshness":"FRESH","line1":"1 57236U 23094U   26145.15544565 -.00000502  00000+0 -87152-5 0  9990","line2":"2 57236  43.0031 308.1272 0001248 270.1008  89.9701 15.27571094158933","mean_motion":15.27571094,"eccentricity":0.0001248,"inclination_deg":43.0031,"raan_deg":308.1272,"arg_perigee_deg":270.1008,"mean_anomaly_deg":89.9701,"bstar":-8.7152e-6,"rev_number":15893,"period_min":94.267298304874,"perigee_km":482.2194845842,"apogee_km":483.93204329007,"semimajor_km":6861.2127639371,"source":"CELESTRAK","updated_at":"2026-05-25T13:38:18.255507Z"}}}